sat.trackr.live / text

‹ back to catalog

STARLINK-32329

NORAD 62736 · 2025-014B

PAYLOAD ACTIVE UNKNOWN

§ Identity

Operator
Country
US
Launch date
2025-01-21
Launch site
AFETR
Launch vehicle
Mass (kg)
RCS (m²)

Purposes: comms

External: N2YO · Heavens-Above · Gunter

§ Orbital elements

Epoch: 2026-05-25T03:52:51.900384Z

Period
94.27 min
Inclination
42.9986°
Eccentricity
0.0001845
Mean motion
15.27592596 rev/d
Perigee alt
481.7 km
Apogee alt
484.3 km
Semi-major
6,861.1 km
B*
6.2023e-4
RAAN
82.4350°
Arg perigee
255.1548°
Mean anomaly
104.9099°
Rev number
7,495

§ Raw data

STARLINK-323291 62736U 25014B   26145.16171181  .00016851  00000+0  62023-3 0  99962 62736  42.9986  82.4350 0001845 255.1548 104.9099 15.27592596 74952

JSON: /api/v1/satellites/62736 · /tle

For live sub-satellite position, see the globe view (requires WebGL).

§ Visibility from observer

Set your observer location to see the next 7 days of passes ≥ 10°. The values pass through the URL so the page stays shareable.

No JS? Fill the form by hand. The geolocation button needs JavaScript.